Location: Antioch Baptist Church
(32.6696°N, 85.7327°W)
Time: 12:22:13
(UTC+00:00)

Cosmos 2112 Rocket - Pass Details

Date: 14 July 2020
Orbit: 756 x 787 km, 74.1° (Epoch: 09 August)

Event Time Altitude Azimuth Distance (km) Brightness Sun altitude
Exits shadow 02:19:11 12° 179° (S) 2,187 6.0 -16.2°
Maximum altitude 02:23:59 56° 103° (ESE) 932 4.1 -16.9°
Drops below altitude 10° 02:29:12 10° 26° (NNE) 2,350 6.7 -17.8°
Sets 02:31:38 0° 22° (NNE) 3,282 7.5 -18.1°
